Regional Weather Roundup
Issued by NWS

Home | Current Version | Previous Version | Text Only | Print | Product List | Glossary Off
Versions: 1 2 3 4 5 6 7 8 9 10 11 12 13 14 15 16 17 18 19 20 21 22 23 24 25 26 27 28 29 30 31 32 33 34 35 36 37 38 39 40 41 42 43 44 45 46 47 48 49 50

000
ASUS44 KMEG 240900
RWRTN
TENNESSEE HOURLY STATE WEATHER ROUNDUP
NATIONAL WEATHER SERVICE MEMPHIS TN
300 AM CST FRI FEB 24 2017

TNZ002-004-019-021-049-052-054-088>092-241000-
WEST TENNESSEE

CITY           SKY/WX    TMP DP  RH WIND       PRES   REMARKS
MEMPHIS INTL   CLEAR     63  58  83 S13       29.66F
NWS MEMPHIS      N/A     64 N/A N/A MISG        N/A
JACKSON        CLEAR     63  58  83 S12G22    29.68F
UNION CITY     CLEAR     61  61 100 S14       29.63F
PARIS          CLEAR     61  55  82 S14       29.67S
$$

TNZ008-025-027-028-033-062-065-066-241000-
NORTH MIDDLE TENNESSEE

CITY           SKY/WX    TMP DP  RH WIND       PRES   REMARKS
NASHVILLE      PTCLDY    65  55  70 S17       29.75S
CLARKSVILLE    PTCLDY    65  54  67 S15       29.69F
SMYRNA         CLEAR     62  56  80 S6        29.77S
CROSSVILLE     CLEAR     60  48  64 S10G18    29.84R
$$

TNZ061-075-076-078-094-096-097-241000-
SOUTH MIDDLE TENNESSEE

CITY           SKY/WX    TMP DP  RH WIND       PRES   REMARKS
TULLAHOMA      MOCLDY    61  54  77 SE3       29.82R
WINCHESTER     CLEAR     61  54  77 CALM      29.82S
MCMINNVILLE    CLEAR     63  54  72 S3        29.80S
COLUMBIA       CLEAR     64  64 100 S10       29.74F
SHELBYVILLE    PTCLDY    63  57  82 SE9       29.79F
$$

TNZ017-018-042-046-047-241000-
NORTHEAST TENNESSEE

CITY           SKY/WX    TMP DP  RH WIND       PRES   REMARKS
TRI CITIES     PTCLDY    49  47  93 CALM      29.87S
$$

TNZ012-013-036-069-073-074-241000-
CENTRAL EAST TENNESSEE

CITY           SKY/WX    TMP DP  RH WIND       PRES   REMARKS
KNOXVILLE      CLOUDY    53  50  89 NE3       29.82S
OAK RIDGE      PTCLDY    51  49  92 CALM      29.84S
GATLINBURG     CLEAR     46  46 100 CALM      29.83S
$$

TNZ083-085-099-241000-
SOUTHEAST TENNESSEE

CITY           SKY/WX    TMP DP  RH WIND       PRES   REMARKS
CHATTANOOGA    CLEAR     51  49  92 CALM      29.84S
$$

SKY/WX REPORTED AS FAIR MEANS FEW OR NO CLOUDS BELOW
12 THOUSAND FEET.





USA.gov is the U.S. government's official web portal to all federal, state and local government web resources and services.